Location: Observatory
(52.1446°N, 0.4624°W)
Time: 17:11:49
(UTC+00:00)

ISS - Pass Details

Date: 28 November 2023
Orbit: 415 x 417 km, 51.6° (Epoch: 06 December)

Event Time Altitude Azimuth Distance (km) Brightness Sun altitude
Rises 18:01:46 0° 278° (W) 2,362 1.4 -18.5°
Reaches altitude 10° 18:03:52 10° 276° (W) 1,498 0.2 -18.8°
Maximum altitude 18:07:13 70° 193° (SSW) 450 -3.7 -19.3°
Enters shadow 18:07:34 62° 148° (SSE) 474 -3.7 -19.4°
